Tracking 18984 objects as of 24-Feb-2018
HD Live streaming from Space Station
objects crossing your sky now

FENGYUN 1C DEB

Track FENGYUN 1C DEB now!
10-day predictions


NORAD ID: 29931
Int'l Code: 1999-025JD
Perigee: 868.2 km
Apogee: 915.8 km
Inclination: 99.2 °
Period: 102.7 minutes
Semi major axis: 7263 km
RCS: 0.0957 m2 (small)
Launch date: May 10, 1999
Source: People's Republic of China (PRC)
Launch site: Taiyaun Space Center, China (TSC)

Note: This is SATELLITE DEBRIS
aabbcc
Your satellite tracking list
Your tracking list is empty




NASA's NSSDC Master Catalog

Two Line Element Set (TLE):
1 29931U 99025JD  18055.05455465  .00000351  00000-0  25633-3 0  9993
2 29931  99.1904  73.5306 0032815  74.9100 347.5829 14.02579723568807
Source of the keplerian elements: AFSPC